Location: Sceptre
(50.8619°N, 109.2670°W)
Time: 21:24:18
(UTC+00:00)

CUBEBUG 2 - Visible Passes

Search period start: 26 June 2022 00:00
Search period end: 06 July 2022 00:00
Orbit: 582 x 695 km, 97.7° (Epoch: 26 June)

Date Brightness Start Highest point End Pass type
(mag) Time Alt. Az. Time Alt. Az. Time Alt. Az.
26 Jun ? 10:03:54 10° NNE 10:07:55 48° E 10:11:59 10° S visible
28 Jun ? 09:14:25 10° NE 09:17:06 16° E 09:19:48 10° SE visible
29 Jun ? 09:36:47 10° NE 09:40:20 27° E 09:43:56 10° SSE visible
30 Jun ? 09:59:29 10° NNE 10:03:30 44° E 10:07:33 10° S visible
02 Jul ? 09:10:07 10° NE 09:12:39 15° E 09:15:11 10° SE visible
03 Jul ? 09:32:22 10° NE 09:35:52 25° E 09:39:25 10° SSE visible
04 Jul ? 09:55:02 10° NNE 09:59:02 41° E 10:03:06 10° S visible
05 Jul ? 10:17:54 10° NNE 10:22:07 69° ESE 10:26:25 10° S visible
